TOM25A EHRD-EGPH

Flight info

Callsign TOM25A
Flight time 1h 5m
Altitude 34000
Route TULIP4A TULIP DCT OTR DCT NEW DCT TLA DCT
Aircraft B738/M-V/N

Departure

Time 2026-04-30 21:31
Airport Rotterdam The Hague Airport (EHRD)

Arrival

Time 2026-04-30 22:37
Airport Edinburgh Airport (EGPH)
Time Latitude Longitude Altitude Speed Heading
2026-04-30 21:17 51.94960 4.43645 -7 ft 0 kts 327°
2026-04-30 21:24 51.94955 4.43650 -7 ft 4 kts 329°
2026-04-30 21:25 51.94908 4.43655 -7 ft 4 kts 51°
2026-04-30 21:25 51.94905 4.43647 -7 ft 0 kts 57°
2026-04-30 21:27 51.94910 4.43662 -7 ft 7 kts 57°
2026-04-30 21:28 51.94993 4.43697 -7 ft 8 kts 325°
2026-04-30 21:28 51.95051 4.43635 -7 ft 12 kts 327°
2026-04-30 21:28 51.95220 4.43459 -6 ft 9 kts 327°
2026-04-30 21:29 51.95232 4.43379 -6 ft 10 kts 248°
2026-04-30 21:29 51.95111 4.43019 -6 ft 12 kts 256°
2026-04-30 21:30 51.95216 4.42862 -6 ft 10 kts 15°
2026-04-30 21:31 51.96056 4.44883 406 ft 168 kts 59°
2026-04-30 21:31 51.97536 4.48495 2042 ft 206 kts 67°
2026-04-30 21:32 51.99655 4.51969 3516 ft 245 kts 21°
2026-04-30 21:32 52.01385 4.51952 4395 ft 258 kts 344°
2026-04-30 21:32 52.02872 4.50329 5432 ft 261 kts 307°
2026-04-30 21:32 52.03577 4.47679 6490 ft 257 kts 272°
2026-04-30 21:33 52.03313 4.44866 7380 ft 252 kts 238°
2026-04-30 21:33 52.00822 4.41236 9311 ft 246 kts 210°
2026-04-30 21:33 51.99396 4.39633 10250 ft 252 kts 211°
2026-04-30 21:34 51.97956 4.37978 11157 ft 254 kts 211°
2026-04-30 21:34 51.96010 4.33044 12385 ft 296 kts 258°
2026-04-30 21:34 51.95734 4.29582 12610 ft 324 kts 261°
2026-04-30 21:35 51.95463 4.25807 12879 ft 347 kts 261°
2026-04-30 21:35 51.95166 4.21916 13514 ft 357 kts 260°
2026-04-30 21:35 51.94838 4.17904 14334 ft 360 kts 259°
2026-04-30 21:35 51.94506 4.13859 15113 ft 363 kts 262°
2026-04-30 21:36 51.94710 4.09750 15833 ft 372 kts 286°
2026-04-30 21:36 51.95874 4.05989 16603 ft 376 kts 308°
2026-04-30 21:37 52.01491 3.96948 18739 ft 387 kts 316°
2026-04-30 21:37 52.03441 3.93898 19389 ft 390 kts 316°
2026-04-30 21:37 52.05394 3.90806 20027 ft 393 kts 315°
2026-04-30 21:37 52.07362 3.87660 20598 ft 398 kts 315°
2026-04-30 21:38 52.09340 3.84480 21232 ft 401 kts 315°
2026-04-30 21:38 52.11307 3.81315 21860 ft 403 kts 315°
2026-04-30 21:38 52.13482 3.78416 22418 ft 407 kts 332°
2026-04-30 21:38 52.16151 3.76896 23012 ft 407 kts 353°
2026-04-30 21:39 52.18976 3.76791 23635 ft 407 kts 11°
2026-04-30 21:39 52.21710 3.77950 24246 ft 406 kts 20°
2026-04-30 21:39 52.24400 3.79398 24813 ft 409 kts 21°
2026-04-30 21:39 52.27131 3.80853 25293 ft 414 kts 20°
2026-04-30 21:40 52.29856 3.82254 25854 ft 416 kts 19°
2026-04-30 21:40 52.32734 3.83069 26358 ft 425 kts
2026-04-30 21:40 52.35653 3.82204 26933 ft 429 kts 340°
2026-04-30 21:40 52.38264 3.79848 27509 ft 431 kts 322°
2026-04-30 21:41 52.40333 3.76287 28037 ft 432 kts 303°
2026-04-30 21:41 52.41920 3.72110 28597 ft 433 kts 300°
2026-04-30 21:41 52.43432 3.67862 28914 ft 441 kts 298°
2026-04-30 21:41 52.44966 3.63462 29292 ft 445 kts 299°
2026-04-30 21:42 52.46497 3.59066 30038 ft 441 kts 299°
2026-04-30 21:42 52.48030 3.54692 30504 ft 443 kts 299°
2026-04-30 21:42 52.49582 3.50298 30859 ft 446 kts 300°
2026-04-30 21:42 52.51150 3.45876 31140 ft 451 kts 297°
2026-04-30 21:43 52.52730 3.41348 31340 ft 457 kts 299°
2026-04-30 21:43 52.54325 3.36906 31802 ft 457 kts 299°
2026-04-30 21:43 52.55952 3.32455 32441 ft 451 kts 300°
2026-04-30 21:43 52.57543 3.28030 33062 ft 447 kts 299°
2026-04-30 21:44 52.59103 3.23618 33548 ft 446 kts 298°
2026-04-30 21:44 52.60650 3.19155 33818 ft 449 kts 299°
2026-04-30 21:44 52.62226 3.14737 34297 ft 448 kts 299°
2026-04-30 21:44 52.63787 3.10315 34284 ft 456 kts 298°
2026-04-30 21:45 52.67018 3.01117 34320 ft 471 kts 298°
2026-04-30 21:45 52.70338 2.91639 34321 ft 482 kts 299°
2026-04-30 21:46 52.73680 2.82000 34308 ft 483 kts 298°
2026-04-30 21:46 52.77018 2.72438 34304 ft 482 kts 299°
2026-04-30 21:47 52.80375 2.62824 34307 ft 481 kts 298°
2026-04-30 21:47 52.83698 2.53206 34307 ft 480 kts 298°
2026-04-30 21:48 52.86979 2.43642 34299 ft 481 kts 298°
2026-04-30 21:48 52.90281 2.33997 34295 ft 481 kts 298°
2026-04-30 21:49 52.93582 2.24322 34308 ft 482 kts 298°
2026-04-30 21:49 52.96877 2.14630 34309 ft 482 kts 298°
2026-04-30 21:50 53.00152 2.04961 34301 ft 482 kts 297°
2026-04-30 21:50 53.03428 1.95235 34292 ft 482 kts 297°
2026-04-30 21:51 53.06682 1.85556 34301 ft 481 kts 297°
2026-04-30 21:51 53.09945 1.75812 34290 ft 481 kts 297°
2026-04-30 21:52 53.13193 1.66072 34294 ft 481 kts 297°
2026-04-30 21:52 53.16434 1.56310 34291 ft 481 kts 297°
2026-04-30 21:53 53.19645 1.46587 34295 ft 481 kts 296°
2026-04-30 21:53 53.22880 1.36770 34291 ft 481 kts 296°
2026-04-30 21:54 53.26082 1.27016 34292 ft 481 kts 296°
2026-04-30 21:54 53.29295 1.17184 34290 ft 481 kts 296°
2026-04-30 21:55 53.32499 1.07340 34289 ft 481 kts 296°
2026-04-30 21:55 53.35672 0.97542 34297 ft 482 kts 295°
2026-04-30 21:56 53.38870 0.87637 34293 ft 482 kts 295°
2026-04-30 21:56 53.42054 0.77740 34290 ft 482 kts 295°
2026-04-30 21:57 53.45237 0.67803 34292 ft 482 kts 295°
2026-04-30 21:57 53.48385 0.57933 34287 ft 482 kts 295°
2026-04-30 21:58 53.51550 0.47965 34294 ft 483 kts 295°
2026-04-30 21:58 53.54693 0.38027 34281 ft 484 kts 295°
2026-04-30 21:59 53.57852 0.27998 34285 ft 485 kts 295°
2026-04-30 22:00 53.62561 0.12972 34277 ft 485 kts 295°
2026-04-30 22:00 53.67278 -0.02167 34304 ft 485 kts 294°
2026-04-30 22:01 53.71228 -0.11389 34279 ft 493 kts 312°
2026-04-30 22:01 53.76652 -0.18571 34277 ft 496 kts 324°
2026-04-30 22:02 53.82384 -0.24981 34268 ft 497 kts 324°
2026-04-30 22:02 53.88143 -0.31471 34279 ft 497 kts 324°
2026-04-30 22:03 53.93872 -0.38055 34283 ft 497 kts 323°
2026-04-30 22:03 53.99580 -0.44685 34280 ft 497 kts 323°
2026-04-30 22:04 54.05278 -0.51331 34281 ft 497 kts 323°
2026-04-30 22:05 54.13799 -0.61302 34281 ft 496 kts 323°
2026-04-30 22:05 54.19499 -0.67997 34277 ft 496 kts 323°
2026-04-30 22:06 54.25189 -0.74703 34289 ft 496 kts 323°
2026-04-30 22:06 54.33686 -0.84762 34283 ft 496 kts 323°
2026-04-30 22:07 54.39363 -0.91510 34273 ft 496 kts 323°
2026-04-30 22:07 54.45037 -0.98279 34275 ft 496 kts 323°
2026-04-30 22:08 54.50702 -1.05060 34283 ft 496 kts 322°
2026-04-30 22:08 54.56313 -1.11799 34277 ft 491 kts 322°
2026-04-30 22:09 54.59069 -1.15112 34255 ft 473 kts 322°
2026-04-30 22:09 54.61723 -1.18305 34251 ft 457 kts 322°
2026-04-30 22:09 54.64283 -1.21394 34249 ft 442 kts 322°
2026-04-30 22:09 54.66778 -1.24412 33961 ft 435 kts 322°
2026-04-30 22:10 54.69240 -1.27398 33667 ft 429 kts 322°
2026-04-30 22:10 54.71671 -1.30353 33316 ft 424 kts 322°
2026-04-30 22:10 54.74081 -1.33286 32957 ft 421 kts 322°
2026-04-30 22:10 54.76465 -1.36190 32591 ft 418 kts 322°
2026-04-30 22:11 54.81150 -1.41908 31908 ft 411 kts 321°
2026-04-30 22:11 54.83481 -1.44757 31560 ft 408 kts 321°
2026-04-30 22:11 54.85791 -1.47586 31225 ft 405 kts 321°
2026-04-30 22:12 54.88090 -1.50405 30885 ft 403 kts 321°
2026-04-30 22:12 54.90374 -1.53210 30553 ft 401 kts 321°
2026-04-30 22:12 54.92641 -1.55999 30197 ft 398 kts 321°
2026-04-30 22:12 54.94905 -1.58787 29809 ft 396 kts 321°
2026-04-30 22:13 54.97121 -1.61519 29462 ft 392 kts 321°
2026-04-30 22:13 54.99343 -1.64261 29137 ft 390 kts 321°
2026-04-30 22:13 55.01552 -1.66995 28770 ft 387 kts 320°
2026-04-30 22:13 55.03555 -1.70071 28415 ft 379 kts 308°
2026-04-30 22:14 55.05184 -1.73634 28058 ft 371 kts 297°
2026-04-30 22:14 55.06471 -1.77436 27741 ft 367 kts 294°
2026-04-30 22:14 55.07723 -1.81315 27400 ft 364 kts 294°
2026-04-30 22:14 55.08968 -1.85155 27072 ft 363 kts 294°
2026-04-30 22:15 55.10223 -1.88975 26748 ft 361 kts 295°
2026-04-30 22:15 55.11058 -1.91496 26532 ft 360 kts 295°
2026-04-30 22:15 55.12308 -1.95268 26190 ft 359 kts 295°
2026-04-30 22:15 55.13566 -1.99072 25686 ft 364 kts 295°
2026-04-30 22:16 55.14839 -2.02935 25208 ft 368 kts 295°
2026-04-30 22:16 55.16127 -2.06845 24704 ft 373 kts 295°
2026-04-30 22:17 55.20054 -2.18801 23048 ft 383 kts 295°
2026-04-30 22:17 55.21384 -2.22859 22511 ft 384 kts 295°
2026-04-30 22:17 55.24020 -2.30913 21438 ft 374 kts 295°
2026-04-30 22:18 55.25304 -2.34846 20937 ft 368 kts 295°
2026-04-30 22:18 55.27787 -2.42477 19965 ft 357 kts 295°
2026-04-30 22:19 55.30214 -2.49969 19014 ft 349 kts 295°
2026-04-30 22:19 55.31410 -2.53670 18330 ft 351 kts 296°
2026-04-30 22:19 55.33788 -2.61041 17472 ft 338 kts 295°
2026-04-30 22:20 55.34936 -2.64605 17051 ft 333 kts 295°
2026-04-30 22:20 55.37177 -2.71589 16153 ft 327 kts 295°
2026-04-30 22:20 55.38292 -2.75072 15709 ft 325 kts 294°
2026-04-30 22:21 55.39399 -2.78533 15281 ft 323 kts 294°
2026-04-30 22:21 55.40497 -2.81970 14841 ft 321 kts 294°
2026-04-30 22:21 55.41588 -2.85393 14412 ft 319 kts 294°
2026-04-30 22:21 55.42677 -2.88808 13928 ft 319 kts 294°
2026-04-30 22:22 55.43747 -2.92172 13471 ft 317 kts 294°
2026-04-30 22:22 55.44821 -2.95551 13031 ft 314 kts 294°
2026-04-30 22:22 55.46070 -2.98712 12553 ft 319 kts 314°
2026-04-30 22:22 55.47959 -3.00760 12134 ft 321 kts 338°
2026-04-30 22:23 55.50074 -3.01991 11728 ft 319 kts 341°
2026-04-30 22:23 55.52195 -3.03120 11284 ft 317 kts 342°
2026-04-30 22:23 55.54306 -3.04237 10828 ft 316 kts 342°
2026-04-30 22:23 55.56431 -3.05377 10226 ft 319 kts 342°
2026-04-30 22:24 55.58512 -3.06509 9879 ft 311 kts 342°
2026-04-30 22:24 55.60520 -3.07613 9718 ft 295 kts 341°
2026-04-30 22:24 55.62453 -3.08683 9323 ft 284 kts 341°
2026-04-30 22:24 55.64304 -3.09711 8871 ft 274 kts 341°
2026-04-30 22:25 55.66095 -3.10709 8430 ft 265 kts 341°
2026-04-30 22:25 55.67837 -3.11681 7971 ft 259 kts 341°
2026-04-30 22:25 55.69518 -3.12619 7513 ft 255 kts 341°
2026-04-30 22:25 55.71114 -3.13921 7097 ft 250 kts 316°
2026-04-30 22:26 55.72669 -3.19177 7028 ft 240 kts 282°
2026-04-30 22:26 55.73111 -3.22023 7012 ft 238 kts 280°
2026-04-30 22:26 55.73536 -3.24863 6938 ft 237 kts 280°
2026-04-30 22:27 55.73957 -3.27653 6803 ft 230 kts 280°
2026-04-30 22:27 55.74364 -3.30315 6698 ft 222 kts 281°
2026-04-30 22:27 55.75183 -3.35643 6447 ft 225 kts 281°
2026-04-30 22:28 55.76019 -3.41019 6209 ft 226 kts 282°
2026-04-30 22:28 55.76438 -3.43718 6074 ft 226 kts 282°
2026-04-30 22:29 55.77672 -3.51642 5679 ft 209 kts 282°
2026-04-30 22:29 55.78047 -3.54046 5520 ft 195 kts 282°
2026-04-30 22:30 55.79394 -3.62742 5000 ft 178 kts 282°
2026-04-30 22:31 55.80383 -3.69034 4612 ft 175 kts 288°
2026-04-30 22:32 55.83446 -3.70012 4209 ft 178 kts 52°
2026-04-30 22:32 55.84990 -3.66577 3755 ft 177 kts 56°
2026-04-30 22:33 55.86939 -3.61164 3048 ft 171 kts 63°
2026-04-30 22:33 55.88149 -3.57568 2573 ft 167 kts 63°
2026-04-30 22:34 55.89869 -3.52407 1876 ft 158 kts 63°
2026-04-30 22:35 55.90975 -3.49116 1500 ft 155 kts 62°
2026-04-30 22:36 55.93149 -3.42695 671 ft 150 kts 58°
2026-04-30 22:36 55.93680 -3.41122 469 ft 148 kts 57°
2026-04-30 22:37 55.95112 -3.36923 111 ft 79 kts 58°
2026-04-30 22:37 55.95247 -3.36516 109 ft 14 kts 60°
2026-04-30 22:37 55.95199 -3.36355 113 ft 10 kts 148°
2026-04-30 22:38 55.95091 -3.36403 112 ft 14 kts 238°
2026-04-30 22:38 55.94973 -3.36758 112 ft 12 kts 239°
2026-04-30 22:39 55.94926 -3.36815 114 ft 0 kts 173°
2026-04-30 22:39 55.94930 -3.36648 114 ft 8 kts 64°
2026-04-30 22:40 55.94880 -3.36548 112 ft 0 kts 149°